| time (UTC) | temp C | wind direction | speed KPH | gust KPH | rain 1hr cm | rain 24hr cm | rain mn cm | humidity % | barometer mb |
| 20260508161003 | 12 | 141 | 0.0 | 6.4 | 0.00 | 0.00 | 0.00 | 51 | 1021.9 |
| 20260508160003 | 12 | 344 | 0.0 | 4.8 | 0.00 | 0.00 | 0.00 | 43 | 1021.8 |
| 20260508155003 | 12 | 344 | 0.0 | 6.4 | 0.00 | 0.00 | 0.00 | 43 | 1021.6 |
| 20260508154003 | 12 | 344 | 1.6 | 6.4 | 0.00 | 0.00 | 0.00 | 43 | 1021.6 |
| 20260508153003 | 13 | 343 | 1.6 | 12.9 | 0.00 | 0.00 | 0.00 | 43 | 1021.5 |
| 20260508152003 | 13 | 346 | 0.0 | 8.0 | 0.00 | 0.00 | 0.00 | 44 | 1021.3 |
| 20260508151003 | 13 | 347 | 0.0 | 4.8 | 0.00 | 0.00 | 0.00 | 43 | 1021.4 |
| 20260508150004 | 13 | 348 | 0.0 | 3.2 | 0.00 | 0.00 | 0.00 | 42 | 1021.4 |
| 20260508145003 | 13 | 348 | 0.0 | 6.4 | 0.00 | 0.00 | 0.00 | 41 | 1021.4 |
| 20260508144003 | 13 | 348 | 1.6 | 4.8 | 0.00 | 0.00 | 0.00 | 43 | 1021.2 |
| 20260508143003 | 13 | 347 | 1.6 | 6.4 | 0.00 | 0.00 | 0.00 | 42 | 1021.3 |
| 20260508142003 | 13 | 343 | 0.0 | 4.8 | 0.00 | 0.00 | 0.00 | 43 | 1021.1 |
| 20260508141003 | 13 | 343 | 1.6 | 9.7 | 0.00 | 0.00 | 0.00 | 43 | 1021.1 |
| 20260508140003 | 13 | 343 | 0.0 | 4.8 | 0.00 | 0.00 | 0.00 | 43 | 1021.0 |
| 20260508135003 | 13 | 343 | 1.6 | 4.8 | 0.00 | 0.00 | 0.00 | 43 | 1021.0 |
| 20260508134003 | 13 | 343 | 0.0 | 6.4 | 0.00 | 0.00 | 0.00 | 42 | 1021.1 |
| 20260508133003 | 13 | 343 | 1.6 | 8.0 | 0.00 | 0.00 | 0.00 | 38 | 1020.8 |
| 20260508132003 | 13 | 344 | 1.6 | 6.4 | 0.00 | 0.00 | 0.00 | 42 | 1020.8 |
| 20260508131003 | 13 | 343 | 1.6 | 6.4 | 0.00 | 0.00 | 0.00 | 41 | 1020.8 |
| 20260508130003 | 13 | 343 | 1.6 | 4.8 | 0.00 | 0.00 | 0.00 | 49 | 1020.7 |
| 20260508125003 | 12 | 343 | 1.6 | 8.0 | 0.00 | 0.00 | 0.00 | 53 | 1020.7 |
| 20260508124003 | 12 | 343 | 1.6 | 6.4 | 0.00 | 0.00 | 0.00 | 57 | 1020.8 |
| 20260508123003 | 12 | 342 | 1.6 | 8.0 | 0.00 | 0.00 | 0.00 | 57 | 1020.7 |
| 20260508122003 | 12 | 342 | 1.6 | 4.8 | 0.00 | 0.00 | 0.00 | 59 | 1020.7 |
| 20260508121003 | 12 | 343 | 1.6 | 8.0 | 0.00 | 0.00 | 0.00 | 57 | 1020.7 |
| 20260508120004 | 12 | 342 | 1.6 | 4.8 | 0.00 | 0.00 | 0.00 | 59 | 1020.7 |
| 20260508115003 | 12 | 342 | 1.6 | 6.4 | 0.00 | 0.00 | 0.00 | 60 | 1020.7 |
| 20260508114003 | 12 | 342 | 1.6 | 4.8 | 0.00 | 0.00 | 0.00 | 59 | 1020.6 |
| 20260508113004 | 12 | 342 | 1.6 | 4.8 | 0.00 | 0.00 | 0.00 | 58 | 1020.5 |
| 20260508112003 | 12 | 342 | 1.6 | 6.4 | 0.00 | 0.00 | 0.00 | 58 | 1020.4 |
| 20260508111003 | 12 | 340 | 1.6 | 6.4 | 0.00 | 0.00 | 0.00 | 58 | 1020.4 |
| 20260508110003 | 12 | 306 | 1.6 | 6.4 | 0.00 | 0.00 | 0.00 | 57 | 1020.3 |
| 20260508105003 | 12 | 344 | 1.6 | 4.8 | 0.00 | 0.00 | 0.00 | 58 | 1020.3 |
| 20260508104003 | 12 | 344 | 1.6 | 4.8 | 0.00 | 0.00 | 0.00 | 58 | 1020.3 |
| 20260508103003 | 12 | 344 | 1.6 | 4.8 | 0.00 | 0.00 | 0.00 | 60 | 1020.1 |
| 20260508102003 | 12 | 344 | 0.0 | 6.4 | 0.00 | 0.00 | 0.00 | 60 | 1020.1 |
| 20260508101003 | 11 | 344 | 1.6 | 4.8 | 0.00 | 0.00 | 0.00 | 59 | 1020.1 |
| 20260508100003 | 11 | 344 | 1.6 | 6.4 | 0.00 | 0.00 | 0.00 | 57 | 1020.1 |
| 20260508095003 | 11 | 344 | 1.6 | 4.8 | 0.00 | 0.00 | 0.00 | 56 | 1020.0 |
| 20260508094003 | 12 | 344 | 1.6 | 4.8 | 0.00 | 0.00 | 0.00 | 53 | 1020.0 |
| 20260508093003 | 11 | 344 | 1.6 | 6.4 | 0.00 | 0.00 | 0.00 | 53 | 1020.0 |
| 20260508092003 | 11 | 344 | 1.6 | 6.4 | 0.00 | 0.00 | 0.00 | 53 | 1019.8 |
| 20260508091003 | 11 | 344 | 3.2 | 8.0 | 0.00 | 0.00 | 0.00 | 55 | 1019.8 |
| 20260508090003 | 11 | 344 | 1.6 | 4.8 | 0.00 | 0.00 | 0.00 | 55 | 1019.8 |
| 20260508085003 | 11 | 343 | 3.2 | 8.0 | 0.00 | 0.00 | 0.00 | 55 | 1019.7 |
| 20260508084004 | 11 | 343 | 1.6 | 4.8 | 0.00 | 0.00 | 0.00 | 54 | 1019.7 |
| 20260508083003 | 11 | 342 | 1.6 | 9.7 | 0.00 | 0.00 | 0.00 | 57 | 1019.6 |
| 20260508082003 | 11 | 342 | 1.6 | 4.8 | 0.00 | 0.00 | 0.00 | 58 | 1019.6 |
| 20260508081003 | 11 | 342 | 1.6 | 4.8 | 0.00 | 0.00 | 0.00 | 58 | 1019.4 |
| 20260508080003 | 11 | 342 | 1.6 | 4.8 | 0.00 | 0.00 | 0.00 | 57 | 1019.3 |
| 20260508075003 | 11 | 342 | 1.6 | 6.4 | 0.00 | 0.00 | 0.00 | 59 | 1019.1 |
| 20260508074003 | 11 | 342 | 1.6 | 8.0 | 0.00 | 0.00 | 0.00 | 57 | 1019.0 |
| 20260508073003 | 10 | 342 | 1.6 | 6.4 | 0.00 | 0.00 | 0.00 | 60 | 1018.8 |
| 20260508072003 | 10 | 342 | 3.2 | 8.0 | 0.00 | 0.00 | 0.00 | 61 | 1018.8 |
| 20260508071003 | 10 | 342 | 1.6 | 6.4 | 0.00 | 0.00 | 0.00 | 63 | 1018.7 |
| 20260508070003 | 10 | 342 | 1.6 | 4.8 | 0.00 | 0.00 | 0.00 | 63 | 1018.7 |
| 20260508065003 | 10 | 342 | 1.6 | 6.4 | 0.00 | 0.00 | 0.00 | 63 | 1018.6 |
| 20260508064003 | 10 | 342 | 1.6 | 4.8 | 0.00 | 0.00 | 0.00 | 63 | 1018.5 |
| 20260508063003 | 10 | 342 | 1.6 | 4.8 | 0.00 | 0.00 | 0.00 | 64 | 1018.4 |
| 20260508062003 | 9 | 342 | 1.6 | 4.8 | 0.00 | 0.00 | 0.00 | 64 | 1018.3 |
| 20260508061003 | 9 | 342 | 1.6 | 4.8 | 0.00 | 0.00 | 0.00 | 62 | 1018.1 |
| 20260508060003 | 8 | 342 | 0.0 | 3.2 | 0.00 | 0.00 | 0.00 | 61 | 1018.0 |
| 20260508055003 | 8 | 342 | 1.6 | 4.8 | 0.00 | 0.00 | 0.00 | 61 | 1017.9 |
| 20260508054003 | 8 | 342 | 1.6 | 3.2 | 0.00 | 0.00 | 0.00 | 61 | 1017.7 |
| 20260508053003 | 8 | 342 | 0.0 | 3.2 | 0.00 | 0.00 | 0.00 | 61 | 1017.5 |
| 20260508052003 | 8 | 342 | 1.6 | 3.2 | 0.00 | 0.00 | 0.00 | 62 | 1017.4 |
| 20260508051003 | 8 | 342 | 1.6 | 3.2 | 0.00 | 0.00 | 0.00 | 62 | 1017.3 |
| 20260508050003 | 8 | 342 | 0.0 | 4.8 | 0.00 | 0.00 | 0.00 | 62 | 1017.3 |
| 20260508045003 | 8 | 342 | 0.0 | 3.2 | 0.00 | 0.00 | 0.00 | 62 | 1017.1 |
| 20260508044003 | 8 | 342 | 0.0 | 4.8 | 0.00 | 0.00 | 0.00 | 62 | 1017.0 |
| 20260508043003 | 8 | 0 | 0.0 | 0.0 | 0.00 | 0.00 | 0.00 | 64 | 1016.8 |
| 20260508042003 | 7 | 0 | 0.0 | 0.0 | 0.00 | 0.00 | 0.00 | 70 | 1016.7 |
| 20260508041003 | 7 | 0 | 0.0 | 0.0 | 0.00 | 0.00 | 0.00 | 74 | 1016.5 |
| 20260508040003 | 7 | 0 | 0.0 | 0.0 | 0.00 | 0.00 | 0.00 | 76 | 1016.4 |
| 20260508035003 | 6 | 0 | 0.0 | 0.0 | 0.00 | 0.00 | 0.00 | 76 | 1016.2 |
| 20260508034003 | 6 | 0 | 0.0 | 0.0 | 0.00 | 0.00 | 0.00 | 74 | 1016.2 |
| 20260508033003 | 6 | 0 | 0.0 | 0.0 | 0.00 | 0.00 | 0.00 | 73 | 1016.0 |
| 20260508032003 | 6 | 0 | 0.0 | 0.0 | 0.00 | 0.00 | 0.00 | 71 | 1015.9 |
| 20260508031003 | 6 | 0 | 0.0 | 0.0 | 0.00 | 0.00 | 0.00 | 70 | 1015.7 |
| 20260508030003 | 6 | 0 | 0.0 | 0.0 | 0.00 | 0.00 | 0.00 | 70 | 1015.6 |
| 20260508025003 | 5 | 0 | 0.0 | 0.0 | 0.00 | 0.00 | 0.00 | 72 | 1015.5 |
| 20260508024003 | 5 | 0 | 0.0 | 0.0 | 0.00 | 0.00 | 0.00 | 73 | 1015.4 |
| 20260508023003 | 5 | 0 | 0.0 | 0.0 | 0.00 | 0.00 | 0.00 | 73 | 1015.3 |
| 20260508022003 | 5 | 0 | 0.0 | 0.0 | 0.00 | 0.00 | 0.00 | 72 | 1015.2 |
| 20260508021003 | 5 | 0 | 0.0 | 0.0 | 0.00 | 0.00 | 0.00 | 72 | 1015.1 |
| 20260508020003 | 5 | 0 | 0.0 | 0.0 | 0.00 | 0.00 | 0.00 | 72 | 1015.0 |
| 20260508015003 | 5 | 0 | 0.0 | 0.0 | 0.00 | 0.00 | 0.00 | 72 | 1015.0 |
| 20260508014003 | 5 | 0 | 0.0 | 0.0 | 0.00 | 0.00 | 0.00 | 72 | 1014.9 |
| 20260508013003 | 5 | 0 | 0.0 | 0.0 | 0.00 | 0.00 | 0.00 | 72 | 1014.9 |
| 20260508012003 | 5 | 0 | 0.0 | 0.0 | 0.00 | 0.00 | 0.00 | 72 | 1014.9 |
| 20260508011003 | 5 | 0 | 0.0 | 0.0 | 0.00 | 0.00 | 0.00 | 73 | 1015.0 |
| 20260508010003 | 5 | 0 | 0.0 | 0.0 | 0.00 | 0.00 | 0.00 | 74 | 1015.0 |
| 20260508005003 | 5 | 0 | 0.0 | 0.0 | 0.00 | 0.00 | 0.00 | 74 | 1015.1 |
| 20260508004003 | 5 | 0 | 0.0 | 0.0 | 0.00 | 0.00 | 0.00 | 73 | 1015.1 |
| 20260508003003 | 5 | 0 | 0.0 | 0.0 | 0.00 | 0.00 | 0.00 | 73 | 1015.0 |
| 20260508002003 | 5 | 0 | 0.0 | 0.0 | 0.00 | 0.00 | 0.00 | 73 | 1014.9 |
| 20260508001003 | 5 | 0 | 0.0 | 0.0 | 0.00 | 0.00 | 0.00 | 72 | 1014.9 |
| 20260508000003 | 5 | 0 | 0.0 | 0.0 | 0.00 | 0.00 | 0.00 | 72 | 1014.9 |
| 20260507235003 | 6 | 0 | 0.0 | 0.0 | 0.00 | 0.00 | 0.00 | 72 | 1014.8 |
| 20260507234003 | 6 | 0 | 0.0 | 0.0 | 0.00 | 0.00 | 0.00 | 72 | 1014.8 |
| 20260507233003 | 6 | 0 | 0.0 | 0.0 | 0.00 | 0.00 | 0.00 | 72 | 1014.7 |
| 20260507232003 | 6 | 0 | 0.0 | 0.0 | 0.00 | 0.00 | 0.00 | 71 | 1014.7 |
| 20260507231003 | 6 | 0 | 0.0 | 0.0 | 0.00 | 0.00 | 0.00 | 71 | 1014.6 |
| 20260507230003 | 6 | 0 | 0.0 | 0.0 | 0.00 | 0.00 | 0.00 | 71 | 1014.5 |
| 20260507225003 | 6 | 0 | 0.0 | 0.0 | 0.00 | 0.00 | 0.00 | 71 | 1014.5 |
| 20260507224003 | 6 | 0 | 0.0 | 0.0 | 0.00 | 0.00 | 0.00 | 70 | 1014.4 |
| 20260507223003 | 6 | 0 | 0.0 | 0.0 | 0.00 | 0.00 | 0.00 | 69 | 1014.5 |
| 20260507222003 | 6 | 0 | 0.0 | 0.0 | 0.00 | 0.00 | 0.00 | 69 | 1014.3 |
| 20260507221003 | 7 | 0 | 0.0 | 0.0 | 0.00 | 0.00 | 0.00 | 68 | 1014.3 |
| 20260507220003 | 7 | 0 | 0.0 | 0.0 | 0.00 | 0.00 | 0.00 | 68 | 1014.2 |
| 20260507215003 | 7 | 0 | 0.0 | 0.0 | 0.00 | 0.00 | 0.00 | 67 | 1014.2 |
| 20260507214003 | 7 | 0 | 0.0 | 0.0 | 0.00 | 0.00 | 0.00 | 67 | 1014.2 |
| 20260507213003 | 7 | 0 | 0.0 | 0.0 | 0.00 | 0.00 | 0.00 | 66 | 1014.1 |
| 20260507212003 | 7 | 0 | 0.0 | 0.0 | 0.00 | 0.00 | 0.00 | 66 | 1014.0 |
| 20260507211003 | 7 | 0 | 0.0 | 0.0 | 0.00 | 0.00 | 0.00 | 66 | 1013.9 |
| 20260507210004 | 7 | 0 | 0.0 | 0.0 | 0.00 | 0.00 | 0.00 | 65 | 1013.8 |
| 20260507205003 | 7 | 0 | 0.0 | 0.0 | 0.00 | 0.00 | 0.00 | 63 | 1013.7 |
| 20260507204003 | 7 | 0 | 0.0 | 0.0 | 0.00 | 0.00 | 0.00 | 57 | 1013.6 |
| 20260507203003 | 8 | 0 | 0.0 | 0.0 | 0.00 | 0.00 | 0.00 | 56 | 1013.5 |
| 20260507202003 | 8 | 0 | 0.0 | 0.0 | 0.00 | 0.00 | 0.00 | 56 | 1013.4 |
| 20260507201003 | 8 | 0 | 0.0 | 0.0 | 0.00 | 0.00 | 0.00 | 56 | 1013.1 |
| 20260507200003 | 8 | 0 | 0.0 | 0.0 | 0.00 | 0.00 | 0.00 | 56 | 1013.1 |
| 20260507195003 | 8 | 0 | 0.0 | 0.0 | 0.00 | 0.00 | 0.00 | 57 | 1012.9 |
| 20260507194003 | 8 | 0 | 0.0 | 0.0 | 0.00 | 0.00 | 0.00 | 56 | 1012.9 |
| 20260507193003 | 8 | 0 | 0.0 | 0.0 | 0.00 | 0.00 | 0.00 | 56 | 1012.8 |
| 20260507192003 | 8 | 0 | 0.0 | 0.0 | 0.00 | 0.00 | 0.00 | 55 | 1012.7 |
| 20260507191003 | 8 | 0 | 0.0 | 0.0 | 0.00 | 0.00 | 0.00 | 54 | 1012.6 |
| 20260507190004 | 9 | 342 | 0.0 | 3.2 | 0.00 | 0.00 | 0.00 | 54 | 1012.5 |
| 20260507185003 | 9 | 342 | 0.0 | 4.8 | 0.00 | 0.00 | 0.00 | 53 | 1012.5 |
| 20260507184003 | 9 | 342 | 0.0 | 4.8 | 0.00 | 0.00 | 0.00 | 53 | 1012.4 |
| 20260507183003 | 9 | 342 | 0.0 | 4.8 | 0.00 | 0.00 | 0.00 | 53 | 1012.3 |
| 20260507182003 | 9 | 342 | 0.0 | 3.2 | 0.00 | 0.00 | 0.00 | 53 | 1012.3 |
| 20260507181003 | 10 | 342 | 1.6 | 4.8 | 0.00 | 0.00 | 0.00 | 53 | 1012.3 |
| 20260507180003 | 10 | 342 | 0.0 | 3.2 | 0.00 | 0.00 | 0.00 | 53 | 1012.2 |
| 20260507175003 | 10 | 342 | 0.0 | 4.8 | 0.00 | 0.00 | 0.00 | 53 | 1012.2 |
| 20260507174003 | 10 | 342 | 0.0 | 4.8 | 0.00 | 0.00 | 0.00 | 53 | 1012.2 |
| 20260507173004 | 10 | 342 | 1.6 | 6.4 | 0.00 | 0.00 | 0.00 | 53 | 1012.2 |
| 20260507172003 | 10 | 342 | 1.6 | 6.4 | 0.00 | 0.00 | 0.00 | 53 | 1012.1 |
| 20260507171003 | 10 | 342 | 3.2 | 9.7 | 0.00 | 0.00 | 0.00 | 52 | 1012.0 |
| 20260507170003 | 10 | 341 | 1.6 | 11.3 | 0.00 | 0.00 | 0.00 | 52 | 1011.9 |
| 20260507165003 | 10 | 341 | 0.0 | 4.8 | 0.00 | 0.00 | 0.00 | 51 | 1011.9 |
| 20260507164003 | 10 | 340 | 1.6 | 6.4 | 0.00 | 0.00 | 0.00 | 51 | 1012.0 |
| 20260507163003 | 10 | 342 | 1.6 | 8.0 | 0.00 | 0.00 | 0.00 | 50 | 1011.9 |
| 20260507162003 | 11 | 152 | 1.6 | 11.3 | 0.00 | 0.00 | 0.00 | 50 | 1011.9 |